550  
ASUS46 KPDT 282210  
RWRPDT  
PENDLETON REGIONAL WEATHER ROUNDUP  
NATIONAL WEATHER SERVICE PENDLETON OREGON  
300 PM PDT TUE JUN 28 2016  
 
NOTE: FAIR INDICATES FEW OR NO CLOUDS BELOW 12,000 FEET WITH NO  
SIGNIFICANT WEATHER AND/OR S TO VISIBILITY
.  
 
# INDICATES UNOFFICIAL STATION AND DATA  
 
WAZ520-282310-  
EAST SLOPES OF WASHINGTON CASCADES  
 
CITY SKY/WX TMP DP RH WIND PRES REMARKS
 
#CLE ELUM HS N/A 86 51 30 W7 30.02F  
#CLE ELUM LAKE N/A 83 56 40 W2 29.95S  
#GLENWOOD N/A 87 60 40 S6 29.96F  
#MANASTASH CYN N/A 84 49 30 W2 30.07F  
#NELSON 3SW N/A 83 55 38 CALM 30.14F  
#NILE N/A 88 51 28 CALM 29.23F  
#RONALD 2NW N/A 84 N/A N/A SW1 29.98F  
#TEANAWAY 4NE N/A 89 56 33 SW2 N/A  
#TROUT LAKE 1NE N/A 87 54 32 SW7 29.96F  
#TROUT LAKE 1E N/A 89 56 33 CALM 30.03F  

 
 
WAZ521-282310-  
SIMCOE HIGHLANDS  
 
CITY SKY/WX TMP DP RH WIND PRES REMARKS
 
#CENTERVILLE 1SWN/A 88 46 23 W7 29.91F  
#GOLDENDALE 1NE N/A 88 31 13 CALM N/A  
#GOLDENDALE 4W N/A 90 55 31 W7 30.06F HX 88  
#GOODNOE HILLS N/A 95 44 17 W13 29.91F HX 91  

 
 
WAZ026-282310-  
KITTITAS VALLEY  
 
CITY SKY/WX TMP DP RH WIND PRES REMARKS
 
ELLENSBURG AP SUNNY 95 44 17 S6 30.03F HX 91  
#ELLENSBURG CWU N/A 92 49 23 N3 29.88F HX 89  
#ELLENSBURG 3NE N/A 88 50 27 S1 30.03F  
#ELLENSBURG N/A 96 48 20 E2 N/A HX 93  
#ELLENSBURG 1E N/A 94 N/A N/A CALM N/A  
#KITTITAS 4N N/A 94 54 26 SW2 30.07F HX 92  
#KITTITAS 3S N/A 89 55 32 CALM 29.91F  
#THORP 6N N/A 86 50 29 S2 29.96F  

 
 
WAZ027-282310-  
YAKIMA VALLEY  
 
CITY SKY/WX TMP DP RH WIND PRES REMARKS
 
SUNNYSIDE AP PTCLDY 92 46 21 E3 29.98F HX 88  
YAKIMA AIRPORT MOSUNNY 98 46 17 VRB5 30.00F HX 94  
YAKIMA-VAGABOND N/A 92 44 19 S6 29.99F HX 88  
#DONALD 2NE N/A 75 22 14 CALM 28.91S  
#GRANDVIEW N/A 92 49 23 CALM 29.95F HX 89  
#MOXEE 2E N/A 93 20 7 S2 29.87F HX 88  
#NACHES 2SW N/A 91 57 32 E2 30.08S HX 90  
#TERRACE HTS N/A 92 53 27 CALM 29.90F HX 90  
#TOPPENISH N/A 90 56 32 E3 29.85F HX 88  
#WEST VALLEY N/A 91 51 26 S5 29.91F HX 88  
#W YAKIMA N/A 92 54 28 S3 29.93F HX 90  
#WHITE SWAN 5E N/A 91 58 33 NE3 29.93F HX 90  
#WILEY CITY 3W N/A 95 40 15 CALM 29.98F HX 91  

 
 
WAZ028-282310-  
LOWER COLUMBIA BASIN...WASHINGTON  
 
CITY SKY/WX TMP DP RH WIND PRES REMARKS
 
HANFORD MOSUNNY 97 43 16 E6 29.98F HX 93  
PASCO SUNNY 95 52 24 NW6 29.97F HX 92  
PROSSER AWOS N/A 93 54 27 CALM 30.00F HX 91  
RICHLAND AWOS SUNNY 97 53 23 NE5 29.96F HX 95  
#BENTON CITY N/A 93 54 27 NW1 29.84F HX 91  
#CONNELL 5N N/A 93 52 25 W2 29.94F HX 90  
#CONNELL 5NW N/A 92 54 28 W2 29.91F HX 90  
#ELTOPIA 6NW N/A 96 58 28 CALM 28.97F HX 95  
#KAHLOTUS N/A 91 49 24 N6 29.92F HX 88  
#KENNEWICK 3S N/A 94 60 32 CALM 29.93F HX 94  
#PATERSON N/A 91 54 29 NW5 29.93F HX 89  
#SAGEMOOR 2W N/A 90 66 45 N1 29.80F HX 92  
#TOUCHET 2S N/A 93 62 36 NW1 29.92F HX 94  
#WEST PASCO N/A 95 60 31 NW1 29.96F HX 95  

 
 
WAZ029-282310-  
FOOTHILLS OF THE BLUES...WASHINGTON  
 
CITY SKY/WX TMP DP RH WIND PRES REMARKS
 
WALLA WALLA AP SUNNY 94 48 21 VRB5 30.00F HX 91  
#CLYDE 6NW N/A 94 49 22 SW6 29.91F HX 91  
#DAYTON SCHOOL N/A 92 46 21 SW3 30.02F HX 88  
#LOWDEN 2SE N/A 93 60 33 W6 29.92F HX 93  
#PLEASANT VIEW 1N/A 93 48 22 W1 29.95F HX 90  
#PRESCOTT N/A 95 56 27 CALM 29.90F HX 93  
#WHITMAN COLLEGEN/A 91 55 30 S3 29.97F HX 89  
#WAITSBURG 5S N/A 93 54 27 N2 30.01F HX 91  
#WAITSBURG 8N N/A 100 33 10 N6 29.85S HX 95  
#WALLA WALLA U N/A 93 56 29 S6 29.92F HX 91  
#WHITMAN MISSIONN/A 93 60 33 CALM 29.94F HX 93  

 
 
WAZ030-282310-  
BLUE MOUNTAINS...WASHINGTON  
 
CITY SKY/WX TMP DP RH WIND PRES REMARKS
 
#DIXIE 5SE N/A 83 55 38 NW6 30.05F  

 
 
ORZ009-041-WAZ024-282310-  
COLUMBIA RIVER GORGE  
 
CITY SKY/WX TMP DP RH WIND PRES REMARKS
 
HOOD RIVER AP SUNNY 84 48 29 NW13 30.04F  
THE DALLES AP SUNNY 88 48 25 N18 29.99F  
#ARLINGTON AIRPON/A 93 44 19 NW3 29.94F HX 89  
#CELILO DOT N/A 96 56 26 SW8 N/A HX 94  
#LYLE N/A 81 54 39 W12G26 30.00F  
#MARYHILL 2W N/A 91 40 17 W6 N/A HX 87  
#MOSIER 1S N/A 84 40 21 NW8 30.03S  
#MURDOCK N/A 85 52 32 NW14 29.94F  
#RUFUS DOT N/A 93 36 14 W15 N/A HX 89  
#SMITHVILLE N/A 87 51 29 W20G26 29.91F  
 

 
 
ORZ510-282310-  
NORTH CENTRAL OREGON  
 
CITY SKY/WX TMP DP RH WIND PRES REMARKS
 
#ANTELOPE N/A 89 51 27 SW9 29.77F  
#CHENOWITH 1W N/A 80 44 28 W20 N/A  
#COW CYN RST AREN/A 85 N/A N/A S5 N/A  
#DUFUR 9E N/A 82 38 21 N15 30.01F  
#GRASS VALLEY 1SN/A 89 44 21 NW5 30.02F  
#KENT DOT N/A 89 42 19 N3 N/A  
#MAUPIN SCHOOL N/A 92 51 25 CALM 30.01F HX 89  
#SHANIKO 5WSW N/A 87 43 22 W8 N/A  
#SHANIKO 4NW N/A 83 -36 1 NW7 30.15F  
#TYGH VALLEY 2NEN/A 90 50 26 S3 29.93F HX 87  
#WAPANITIA AIRPON/A 91 46 21 W5 29.94F HX 87  
#WASCO DOT N/A 94 50 23 NW7 N/A HX 91  
#WASCO 5NE N/A 94 48 21 CALM 29.93F HX 91  

 
 
ORZ511-282310-  
CENTRAL OREGON  
 
CITY SKY/WX TMP DP RH WIND PRES REMARKS
 
BEND AIRPORT SUNNY 86 45 24 VRB6 30.11F  
MADRAS AIRPORT SUNNY 93 39 15 CALM 30.09F HX 89  
PRINEVILLE AP SUNNY 88 41 19 SW8 30.10F  
REDMOND AIRPORT SUNNY 90 40 17 N13 30.10F HX 86  
#ASHWOOD SCHOOL N/A 89 43 20 CALM 30.02F  
#BEND 6E N/A 85 42 22 CALM 29.86F  
#BEND 1SW N/A 86 49 28 N3 N/A  
#BEND-AWBREY N/A 88 51 28 NE5 29.92F  
#BEND-KIM LN N/A 88 52 29 NE2 30.09F  
#CULVER N/A 87 49 27 NW1 29.89F  
#CULVER 8W N/A 87 40 19 NE3 30.08F  
#LAKE BILLY CHINN/A 89 N/A N/A NE3 30.08F  
#MADRAS 4S N/A 86 26 11 NW6 30.14F  
#POWELL BUTTE N/A 88 53 30 N2 29.98F  
#PRINEVILLE 3N N/A 87 48 26 NW1 29.91F  
#WARM SPRINGS N/A 94 48 21 CALM 29.99F HX 91  
 

 
 
 
ORZ509-282310-  
EAST SLOPES OF OREGON CASCADES  
 
CITY SKY/WX TMP DP RH WIND PRES REMARKS
 
SISTERS AWOS N/A 86 46 25 CALM 30.07F  
#BLUE BOX PASS N/A 77 N/A N/A N2 N/A  
#CAMP SHERMAN N/A 91 48 23 SW1 30.01S HX 88  
#LA PINE DOT N/A 89 31 13 W2 N/A  
#LA PINE 4NW N/A 86 47 26 CALM 29.96F  
#LAVA BUTTE DOT N/A 87 43 22 SW2 N/A  
#SISTERS AIRPOR N/A 86 57 37 N6 30.17S  
#SISTERS ODOT N/A 85 N/A N/A CALM N/A  
#SISTERS 3N N/A 85 48 28 SW3 30.08S  
#SUTTLE LK DOT N/A 81 49 33 W14G25 N/A  
#TUMALO 3W N/A 85 50 30 N3 29.81F  
#WANOGA BUTTE D N/A 76 34 22 CALM N/A  
 

 
 
ORZ044-282310-  
LOWER COLUMBIA BASIN...OREGON  
 
CITY SKY/WX TMP DP RH WIND PRES REMARKS
 
HERMISTON SUNNY 95 52 24 VRB5 29.97F HX 92  
#BOARDMAN 8SW N/A 93 51 24 W2 29.93F HX 90  
#ECHO 8SW N/A 94 59 31 W2 29.99F HX 93  
#I-84 EX 198 DOTN/A 91 54 29 CALM N/A HX 89  
#UMATILLA N/A 96 56 26 CALM 29.87F HX 94  

 
 
ORZ507-282310-  
NORTHERN FOOTHILLS OF THE BLUES  
 
CITY SKY/WX TMP DP RH WIND PRES REMARKS
 
PENDLETON AIRPT SUNNY 93 49 22 VRB5 30.01F HX 90  
#ADAMS 3WNW N/A 92 53 27 N8 29.92F HX 90  
#ATHENA N/A 89 51 27 E3 29.96F  
#CAYUSE N/A 91 53 28 N6 29.91F HX 89  
#HELIX SCHOOL N/A 88 52 29 N7 29.94F  
#HELIX 3N N/A 87 51 29 N9 30.01F  
#HELIX 6SW N/A 90 52 27 N1 30.01F HX 87  
#HOLDMAN 5SE N/A 92 53 27 N1 30.00F HX 90  
#HOLDMAN 6E N/A 91 52 27 CALM 29.75F HX 88  
#M-FREEWATER 5SEN/A 92 60 34 CALM 30.00F HX 92  
#PENDLETON DNTN N/A 96 52 23 SW6 30.01F HX 93  
#PDT AQUATIC CTRN/A 93 55 28 SW5 30.03S HX 91  
#PDT SUNRIDGE N/A 94 54 26 W6 30.00F HX 92  
#PENDLETON 7NW N/A 90 61 38 N3 31.81S HX 90  
#PILOT ROCK 1S N/A 90 51 26 W1 30.03F HX 87  
#PILOT ROCK N/A 92 49 23 E3 30.05F HX 89  
#TUTUILLA N/A 92 52 26 CALM 29.96F HX 89  
#UMAPINE 2E N/A 92 59 33 W1 29.95F HX 91  
#WESTON SCHOOL N/A 87 48 26 SE1 29.87  
 

 
 
ORZ508-282310-  
SOUTHERN FOOTHILLS OF THE BLUES  
 
CITY SKY/WX TMP DP RH WIND PRES REMARKS
 
LEXINGTON SUNNY 95 41 16 W9 30.05F HX 91  
#AJAX N/A 89 38 17 NW2 27.81F  
#CONDON SCHOOL N/A 87 50 28 NE3 30.05F  
#CONDON 5W N/A 85 41 21 NW7 30.09F  
#FOSSIL SCHOOL N/A 88 46 23 W3 30.03F  
#HEPPNER EOC N/A 91 46 21 NW3 29.87F HX 87  
#HEPPNER 4NE N/A 86 48 27 N6 29.94F  
#LEXINGTON 2SE N/A 95 46 19 NW6 29.98F HX 91  
#OLEX 4N N/A 93 43 18 SW7 29.98F HX 89  
#RUGGS 5NE N/A 90 42 19 W8 30.27F HX 86  
#RUGGS 2SW N/A 87 45 23 CALM 29.95F  
 

 
 
ORZ502-503-282310-  
BLUE MOUNTAINS  
 
CITY SKY/WX TMP DP RH WIND PRES REMARKS
 
MEACHAM SUNNY 84 46 27 VRB3 30.16F  
#BATTLE MTN DOT N/A 81 48 32 N3 N/A  
#CUTSFORTH PARK N/A 84 50 31 CALM 29.95F  
#HARDMAN 10S N/A 61 34 36 N5 30.22S  
#HEPPNER 15SE N/A 84 50 31 W6 30.10F  
#LADD CYN SMT N/A 90 47 23 N8 N/A HX 87  
#LADD CREEK ODOTN/A 89 54 31 NE8 N/A  
#LONG CREEK HS N/A 85 41 21 CALM N/A  
#N POWDER DOT N/A 90 57 33 N7 N/A HX 89  
#PIKES PEAK N/A 80 53 39 N5 27.99S  
#TOLLGATE N/A 75 52 45 NE3 30.07F  
#TROY SCHOOL N/A 95 51 23 N1 29.73F HX 92  
#UKIAH N/A 84 50 31 NW3 29.88F  
#WESTON 4E N/A 85 55 36 CALM 29.91F  

 
 
ORZ505-282310-  
JOHN DAY BASIN  
 
CITY SKY/WX TMP DP RH WIND PRES REMARKS
 
JOHN DAY SUNNY 92 40 16 W10 30.11F HX 88  
#DAYVILLE SCHOOLN/A 93 37 14 N5 29.99F HX 89  
#MITCHELL N/A 90 57 33 N1 30.23F HX 89  
#MITCHELL 8NW N/A 86 45 24 S2 30.10F  
#MONUMENT HS N/A 92 38 15 SE5 29.89F HX 88  
#MT. VERNON 5SE N/A 87 42 21 W3 30.09F  
#SPRAY SCHOOL N/A 96 N/A N/A CALM N/A  

 
 
ORZ506-282310-  
OCHOCO AND JOHN DAY HIGHLANDS  
 
CITY SKY/WX TMP DP RH WIND PRES REMARKS
 
#BUCK CREEK DOT N/A 88 41 19 SW8 N/A  
#HORSE RIDGE DO N/A 84 43 24 NW12 N/A  
#KEYES SMT DOT N/A 83 44 25 N5 N/A  
#PAULINA SCHOOL N/A 89 37 16 E3 N/A  
#PINE MTN OBS N/A 73 47 40 NW6 N/A  
#PRAIRIE CITY N/A 91 54 29 W1 30.25F HX 89  
#SENECA N/A 85 N/A N/A N5 N/A  
#SENECA 9NW N/A 87 44 22 SE2 29.86F  

 
 
ORZ049-282310-  
GRANDE RONDE VALLEY  
 
CITY SKY/WX TMP DP RH WIND PRES REMARKS
 
LA GRANDE SUNNY 91 45 20 NE9 30.05F HX 87  
#COVE N/A 90 60 37 N3 30.09F HX 90  
#COVE SCHOOL N/A 93 54 27 CALM 30.08F HX 91  
#COVE 6NW N/A 90 52 27 W2 29.93F HX 87  
#ELGIN 3N N/A 91 43 19 CALM 30.03F HX 87  
#ELGIN 1E N/A 91 49 24 CALM N/A HX 88  
#IMBLER SCHOOL N/A 88 46 23 W1 30.01F  
#ISLAND CITY 4N N/A 81 55 41 CALM 30.14F  
#LADD CYN DOT N/A 91 57 32 NW6 N/A HX 90  
#UNION 1S N/A 91 51 26 NW3 29.80F HX 88  

 
 
ORZ050-282310-  
WALLOWA COUNTY  
 
CITY SKY/WX TMP DP RH WIND PRES REMARKS
 
JOSEPH AIRPORT PTCLDY 88 39 18 NE3 N/A  
#ENTERPRISE AP N/A 49 29 46 CALM 30.06F  
#ENTERPRISE HS N/A 88 49 26 N3 30.10F  
#IMNAHA SCHOOL N/A 95 49 21 N7 29.97F HX 92  
#IMNAHA 10S N/A 78 54 43 E1 30.12S  
#JOSEPH 3N N/A 86 47 26 CALM 30.14F  
#JOSEPH 3W N/A N/A N/A N/A N1 30.01F  
#LOSTINE N/A 92 50 24 CALM 29.69F HX 89  
#LOSTINE 3SE N/A 90 45 21 N6 30.06F HX 86  
#MT HOWARD 8000 N/A 68 46 45 N3 30.46F  
#PROMISE 1S N/A 84 51 32 SW7 30.04F  
#WALLOWA SCHOOL N/A 92 45 20 CALM 30.02F HX 88  
 

 
 
CLICK HERE TO GO TO PREVIOUS BULLETINS.

The Nexlab OR Page
The Nexlab WA Page Main Text Page